Location: Demmingen
(48.6757°N, 10.4375°E)
Time: 18:57:49
(UTC+00:00)

Cosmos 1346 Rocket - Pass Details

Date: 23 May 2024
Orbit: 507 x 521 km, 81.2° (Epoch: 24 June)

Event Time Altitude Azimuth Distance (km) Brightness Sun altitude
Rises 00:39:09 0° 342° (NNW) 2,663 7.2 -18.2°
Reaches altitude 10° 00:41:22 10° 336° (NNW) 1,771 6.0 -18.1°
Maximum altitude 00:45:03 43° 264° (W) 743 3.2 -17.8°
Enters shadow 00:45:46 39° 234° (SW) 803 3.2 -17.8°
